This is the latest recevied weather packets stored in our database for station/object N4RCT. If no packets are shown the sender has not sent any weather packets the latest 10 day(s).
| Time | Temp. | Humidity | Pressure | Rain* | Wind** | Luminosity | Snow |
|---|---|---|---|---|---|---|---|
| 1778006265 | 25° C | 40% | 1013.3 hPa | 0 mm | - | 504 W/m² | - |
| 1778005962 | 25.56° C | 42% | 1013.1 hPa | 0 mm | - | 340 W/m² | - |
| 1778005659 | 25.56° C | 41% | 1013.2 hPa | 0 mm | - | 394 W/m² | - |
| 1778005355 | 26.11° C | 42% | 1013.2 hPa | 0 mm | - | 736 W/m² | - |
| 1778005052 | 26.11° C | 43% | 1013.3 hPa | 0 mm | - | 691 W/m² | - |
| 1778004750 | 26.11° C | 45% | 1013.1 hPa | 0 mm | - | 632 W/m² | - |
| 1778004446 | 25.56° C | 45% | 1013.3 hPa | 0 mm | - | 825 W/m² | - |
| 1778004143 | 25° C | 45% | 1013.2 hPa | 0 mm | - | 707 W/m² | - |
| 1778003839 | 25° C | 45% | 1013.5 hPa | 0 mm | - | 568 W/m² | - |
| 1778003536 | 26.11° C | 42% | 1013.5 hPa | 0 mm | - | 367 W/m² | - |
| 1778003232 | 25.56° C | 41% | 1013.3 hPa | 0 mm | - | 801 W/m² | - |
| 1778002929 | 25.56° C | 42% | 1013.8 hPa | 0 mm | - | 825 W/m² | - |
| 1778002625 | 25.56° C | 41% | 1014.3 hPa | 0 mm | - | 691 W/m² | - |
| 1778002322 | 25.56° C | 40% | 1014.1 hPa | 0 mm | - | 637 W/m² | - |
| 1778002019 | 25.56° C | 41% | 1014 hPa | 0 mm | - | 790 W/m² | - |
| 1778001716 | 26.11° C | 42% | 1014.3 hPa | 0 mm | - | 567 W/m² | - |
| 1778001416 | 25.56° C | 45% | 1014.2 hPa | 0 mm | - | 728 W/m² | - |
| 1778001113 | 25° C | 48% | 1014.3 hPa | 0 mm | - | 705 W/m² | - |
| 1778000810 | 25° C | 47% | 1014.2 hPa | 0 mm | - | 323 W/m² | - |
| 1778000506 | 25° C | 47% | 1014.5 hPa | 0 mm | - | 780 W/m² | - |
| 1778000201 | 25° C | 47% | 1014.4 hPa | 0 mm | - | 766 W/m² | - |
| 1777999898 | 25° C | 45% | 1014.6 hPa | 0 mm | - | 783 W/m² | - |
| 1777999593 | 25° C | 46% | 1014.3 hPa | 0 mm | - | 769 W/m² | - |
| 1777999291 | 24.44° C | 46% | 1014.3 hPa | 0 mm | - | 194 W/m² | - |
| 1777998989 | 24.44° C | 49% | 1014.4 hPa | 0 mm | - | 787 W/m² | - |
* Rain latest hour (hover to see other rain measurements)
** Current wind speed in m/s (hover to see current wind gust speed)